Time,TemperatureF,DewpointF,PressureIn,WindDirection,WindDirectionDegrees,WindSpeedMPH,WindSpeedGustMPH,Humidity,HourlyPrecipIn,Conditions,Clouds,dailyrainin,SoftwareType,DateUTC
2013-07-01 00:02:00,72.7,69.6,29.85,SW,225,0.0,0.0,90,0.00,,,0.00,WUHU21523XXSP,2013-07-01 04:02:00,
2013-07-01 00:07:00,72.5,69.4,29.85,SW,225,0.0,0.0,90,0.00,,,0.00,WUHU21523XXSP,2013-07-01 04:07:00,
2013-07-01 00:12:00,72.5,69.1,29.85,SSE,157,0.0,0.0,89,0.00,,,0.00,WUHU21523XXSP,2013-07-01 04:12:00,
2013-07-01 00:17:00,72.3,69.3,29.85,ESE,112,0.0,0.0,90,0.00,,,0.00,WUHU21523XXSP,2013-07-01 04:17:00,
2013-07-01 00:22:00,72.3,69.3,29.86,SSW,202,0.0,0.0,90,0.00,,,0.00,WUHU21523XXSP,2013-07-01 04:22:00,
2013-07-01 00:27:00,72.3,68.9,29.85,SSW,202,0.0,0.0,89,0.00,,,0.00,WUHU21523XXSP,2013-07-01 04:27:00,
2013-07-01 00:32:00,72.3,68.9,29.85,SSW,202,0.0,0.0,89,0.00,,,0.00,WUHU21523XXSP,2013-07-01 04:32:00,
2013-07-01 00:37:00,72.1,68.7,29.86,SE,135,0.0,0.0,89,0.00,,,0.00,WUHU21523XXSP,2013-07-01 04:37:00,
2013-07-01 00:42:00,72.1,68.7,29.86,SE,135,0.0,0.0,89,0.00,,,0.00,WUHU21523XXSP,2013-07-01 04:42:00,
2013-07-01 00:47:00,72.1,68.7,29.86,SE,135,0.0,0.0,89,0.00,,,0.00,WUHU21523XXSP,2013-07-01 04:47:00,
2013-07-01 00:52:00,72.1,68.7,29.85,South,180,3.8,3.8,89,0.00,,,0.00,WUHU21523XXSP,2013-07-01 04:52:00,
2013-07-01 00:57:00,72.1,68.7,29.85,SSW,202,0.0,3.8,89,0.00,,,0.00,WUHU21523XXSP,2013-07-01 04:57:00,
2013-07-01 01:02:00,72.1,68.7,29.85,SSW,202,0.0,3.8,89,0.00,,,0.00,WUHU21523XXSP,2013-07-01 05:02:00,
2013-07-01 01:07:00,72.0,68.6,29.85,SSW,202,0.0,0.0,89,0.00,,,0.00,WUHU21523XXSP,2013-07-01 05:07:00,
2013-07-01 01:12:00,71.8,68.4,29.85,NE,45,0.0,0.0,89,0.00,,,0.00,WUHU21523XXSP,2013-07-01 05:12:00,
2013-07-01 01:17:00,71.8,68.4,29.85,NE,45,0.0,0.0,89,0.00,,,0.00,WUHU21523XXSP,2013-07-01 05:17:00,
2013-07-01 01:22:00,71.8,68.4,29.85,NE,45,0.0,0.0,89,0.00,,,0.00,WUHU21523XXSP,2013-07-01 05:22:00,
2013-07-01 01:27:00,71.8,68.4,29.85,NE,45,0.0,0.0,89,0.00,,,0.00,WUHU21523XXSP,2013-07-01 05:27:00,
2013-07-01 01:32:00,71.8,68.4,29.85,NE,45,0.0,0.0,89,0.00,,,0.00,WUHU21523XXSP,2013-07-01 05:32:00,
2013-07-01 01:37:00,71.4,68.0,29.85,NE,45,0.0,0.0,89,0.00,,,0.00,WUHU21523XXSP,2013-07-01 05:37:00,
2013-07-01 01:42:00,71.4,68.0,29.85,NE,45,0.0,0.0,89,0.00,,,0.00,WUHU21523XXSP,2013-07-01 05:42:00,
2013-07-01 01:47:00,71.4,68.0,29.85,NE,45,0.0,0.0,89,0.00,,,0.00,WUHU21523XXSP,2013-07-01 05:47:00,
2013-07-01 01:52:00,71.4,68.4,29.85,NE,45,0.0,0.0,90,0.00,,,0.00,WUHU21523XXSP,2013-07-01 05:52:00,
2013-07-01 01:57:00,71.4,68.0,29.85,NE,45,0.0,0.0,90,0.00,,,0.00,WUHU21523XXSP,2013-07-01 05:57:00,
2013-07-01 02:02:00,71.4,68.4,29.86,NE,45,0.0,0.0,90,0.00,,,0.00,WUHU21523XXSP,2013-07-01 06:02:00,
2013-07-01 02:07:00,71.4,68.4,29.85,NE,45,0.0,0.0,90,0.00,,,0.00,WUHU21523XXSP,2013-07-01 06:07:00,
2013-07-01 02:12:00,71.4,68.4,29.85,NE,45,0.0,0.0,90,0.00,,,0.00,WUHU21523XXSP,2013-07-01 06:12:00,
2013-07-01 02:17:00,71.2,68.2,29.85,NE,45,0.0,0.0,90,0.00,,,0.00,WUHU21523XXSP,2013-07-01 06:17:00,
2013-07-01 02:22:00,71.4,68.4,29.85,NE,45,0.0,0.0,90,0.00,,,0.00,WUHU21523XXSP,2013-07-01 06:22:00,
2013-07-01 02:27:00,71.4,68.4,29.84,NE,45,0.0,0.0,90,0.00,,,0.00,WUHU21523XXSP,2013-07-01 06:27:00,
2013-07-01 02:32:00,71.4,68.2,29.85,NE,45,0.0,0.0,90,0.00,,,0.00,WUHU21523XXSP,2013-07-01 06:32:00,
2013-07-01 02:37:00,71.2,68.2,29.85,ENE,67,0.0,0.0,90,0.00,,,0.00,WUHU21523XXSP,2013-07-01 06:37:00,
2013-07-01 02:42:00,71.2,68.2,29.84,ENE,67,0.0,0.0,90,0.00,,,0.00,WUHU21523XXSP,2013-07-01 06:42:00,
2013-07-01 02:47:00,71.2,68.2,29.84,ENE,67,0.0,0.0,90,0.00,,,0.00,WUHU21523XXSP,2013-07-01 06:47:00,
2013-07-01 02:52:00,71.2,68.2,29.83,ENE,67,0.0,0.0,90,0.00,,,0.00,WUHU21523XXSP,2013-07-01 06:52:00,
2013-07-01 02:57:00,71.1,68.0,29.83,ENE,67,0.0,0.0,90,0.00,,,0.00,WUHU21523XXSP,2013-07-01 06:57:00,
2013-07-01 03:02:00,71.1,68.0,29.83,ENE,67,0.0,0.0,90,0.00,,,0.00,WUHU21523XXSP,2013-07-01 07:02:00,
2013-07-01 03:07:00,70.9,67.8,29.84,ENE,67,0.0,0.0,90,0.00,,,0.00,WUHU21523XXSP,2013-07-01 07:07:00,
2013-07-01 03:12:00,70.9,68.0,29.84,ENE,67,0.0,0.0,90,0.00,,,0.00,WUHU21523XXSP,2013-07-01 07:12:00,
2013-07-01 03:17:00,70.9,67.8,29.84,ENE,67,0.0,0.0,90,0.00,,,0.00,WUHU21523XXSP,2013-07-01 07:17:00,
2013-07-01 03:22:00,70.9,67.8,29.83,ENE,67,0.0,0.0,90,0.00,,,0.00,WUHU21523XXSP,2013-07-01 07:22:00,
2013-07-01 03:27:00,70.9,67.8,29.84,ENE,67,0.0,0.0,90,0.00,,,0.00,WUHU21523XXSP,2013-07-01 07:27:00,
2013-07-01 03:32:00,70.9,67.8,29.84,ENE,67,0.0,0.0,90,0.00,,,0.00,WUHU21523XXSP,2013-07-01 07:32:00,
2013-07-01 03:37:00,70.9,67.8,29.84,NE,45,0.0,0.0,90,0.00,,,0.00,WUHU21523XXSP,2013-07-01 07:37:00,
2013-07-01 03:42:00,70.9,67.8,29.84,NE,45,0.0,0.0,90,0.00,,,0.00,WUHU21523XXSP,2013-07-01 07:42:00,
2013-07-01 03:47:00,70.9,67.8,29.83,NE,45,0.0,0.0,90,0.00,,,0.00,WUHU21523XXSP,2013-07-01 07:47:00,
2013-07-01 03:52:00,70.9,67.8,29.83,NE,45,0.0,0.0,90,0.00,,,0.00,WUHU21523XXSP,2013-07-01 07:52:00,
2013-07-01 03:57:00,70.9,67.8,29.83,NE,45,0.0,0.0,90,0.00,,,0.00,WUHU21523XXSP,2013-07-01 07:57:00,
2013-07-01 04:02:00,70.9,67.8,29.83,NE,45,0.0,0.0,90,0.00,,,0.00,WUHU21523XXSP,2013-07-01 08:02:00,
2013-07-01 04:07:00,70.9,67.8,29.83,NE,45,0.0,0.0,90,0.00,,,0.00,WUHU21523XXSP,2013-07-01 08:07:00,
2013-07-01 04:12:00,70.9,67.8,29.83,NE,45,0.0,0.0,90,0.00,,,0.00,WUHU21523XXSP,2013-07-01 08:12:00,
2013-07-01 04:17:00,70.9,67.8,29.84,NE,45,0.0,0.0,90,0.00,,,0.00,WUHU21523XXSP,2013-07-01 08:17:00,
2013-07-01 04:22:00,70.7,67.6,29.84,NE,45,0.0,0.0,90,0.00,,,0.00,WUHU21523XXSP,2013-07-01 08:22:00,
2013-07-01 04:27:00,70.7,67.6,29.84,NE,45,0.0,0.0,90,0.00,,,0.00,WUHU21523XXSP,2013-07-01 08:27:00,
2013-07-01 04:32:00,70.7,67.6,29.84,NE,45,0.0,0.0,90,0.00,,,0.00,WUHU21523XXSP,2013-07-01 08:32:00,
2013-07-01 04:37:00,70.7,67.6,29.84,NE,45,0.0,0.0,90,0.00,,,0.00,WUHU21523XXSP,2013-07-01 08:37:00,
2013-07-01 04:42:00,70.7,67.6,29.84,NE,45,0.0,0.0,90,0.00,,,0.00,WUHU21523XXSP,2013-07-01 08:42:00,
2013-07-01 04:47:00,70.7,67.9,29.84,NE,45,0.0,0.0,91,0.00,,,0.00,WUHU21523XXSP,2013-07-01 08:47:00,
2013-07-01 04:52:00,70.7,67.6,29.85,NE,45,0.0,0.0,90,0.00,,,0.00,WUHU21523XXSP,2013-07-01 08:52:00,
2013-07-01 04:57:00,70.7,67.6,29.85,NE,45,0.0,0.0,90,0.00,,,0.00,WUHU21523XXSP,2013-07-01 08:57:00,
2013-07-01 05:02:00,70.7,67.6,29.84,NE,45,0.0,0.0,90,0.00,,,0.00,WUHU21523XXSP,2013-07-01 09:02:00,
2013-07-01 05:07:00,70.5,67.5,29.84,NE,45,0.0,0.0,90,0.00,,,0.00,WUHU21523XXSP,2013-07-01 09:07:00,
2013-07-01 05:12:00,70.5,67.5,29.85,NE,45,0.0,0.0,90,0.00,,,0.00,WUHU21523XXSP,2013-07-01 09:12:00,
2013-07-01 05:17:00,70.5,67.5,29.85,NE,45,0.0,0.0,90,0.00,,,0.00,WUHU21523XXSP,2013-07-01 09:17:00,
2013-07-01 05:22:00,70.5,67.5,29.85,NE,45,0.0,0.0,90,0.00,,,0.00,WUHU21523XXSP,2013-07-01 09:22:00,
2013-07-01 05:27:00,70.3,67.3,29.86,NE,45,0.0,0.0,90,0.00,,,0.00,WUHU21523XXSP,2013-07-01 09:27:00,
2013-07-01 05:32:00,70.3,67.3,29.86,NE,45,0.0,0.0,90,0.00,,,0.00,WUHU21523XXSP,2013-07-01 09:32:00,
2013-07-01 05:37:00,70.3,67.3,29.86,NE,45,0.0,0.0,90,0.00,,,0.00,WUHU21523XXSP,2013-07-01 09:37:00,
2013-07-01 05:42:00,70.3,67.3,29.86,NE,45,0.0,0.0,90,0.00,,,0.00,WUHU21523XXSP,2013-07-01 09:42:00,
2013-07-01 05:47:00,70.3,67.3,29.86,NE,45,0.0,0.0,90,0.00,,,0.00,WUHU21523XXSP,2013-07-01 09:47:00,
2013-07-01 05:52:00,70.3,67.3,29.86,NE,45,0.0,0.0,90,0.00,,,0.00,WUHU21523XXSP,2013-07-01 09:52:00,
2013-07-01 05:57:00,70.3,67.3,29.86,NE,45,0.0,0.0,90,0.00,,,0.00,WUHU21523XXSP,2013-07-01 09:57:00,
2013-07-01 06:02:00,70.3,67.3,29.87,NE,45,0.0,0.0,90,0.00,,,0.00,WUHU21523XXSP,2013-07-01 10:02:00,
2013-07-01 06:07:00,70.3,67.3,29.87,NE,45,0.0,0.0,90,0.00,,,0.00,WUHU21523XXSP,2013-07-01 10:07:00,
2013-07-01 06:12:00,70.3,67.3,29.87,NE,45,0.0,0.0,90,0.00,,,0.00,WUHU21523XXSP,2013-07-01 10:12:00,
2013-07-01 06:17:00,70.3,67.6,29.87,NE,45,0.0,0.0,91,0.00,,,0.00,WUHU21523XXSP,2013-07-01 10:17:00,
2013-07-01 06:22:00,70.3,67.6,29.87,NE,45,0.0,0.0,91,0.00,,,0.00,WUHU21523XXSP,2013-07-01 10:22:00,
2013-07-01 06:27:00,70.3,67.3,29.88,NE,45,0.0,0.0,90,0.00,,,0.00,WUHU21523XXSP,2013-07-01 10:27:00,
2013-07-01 06:32:00,70.2,67.4,29.88,NE,45,0.0,0.0,91,0.00,,,0.00,WUHU21523XXSP,2013-07-01 10:32:00,
2013-07-01 06:37:00,70.2,67.4,29.88,NE,45,0.0,0.0,91,0.00,,,0.00,WUHU21523XXSP,2013-07-01 10:37:00,
2013-07-01 06:42:00,70.3,67.3,29.88,NE,45,0.0,0.0,90,0.00,,,0.00,WUHU21523XXSP,2013-07-01 10:42:00,
2013-07-01 06:47:00,70.2,67.4,29.88,NE,45,0.0,0.0,91,0.00,,,0.00,WUHU21523XXSP,2013-07-01 10:47:00,
2013-07-01 06:52:00,70.2,67.4,29.88,NE,45,0.0,0.0,91,0.00,,,0.00,WUHU21523XXSP,2013-07-01 10:52:00,
2013-07-01 06:57:00,70.2,67.4,29.88,NE,45,0.0,0.0,91,0.00,,,0.00,WUHU21523XXSP,2013-07-01 10:57:00,
2013-07-01 07:02:00,70.2,67.4,29.88,NE,45,0.0,0.0,91,0.00,,,0.00,WUHU21523XXSP,2013-07-01 11:02:00,
2013-07-01 07:07:00,70.2,67.4,29.88,NE,45,0.0,0.0,91,0.00,,,0.00,WUHU21523XXSP,2013-07-01 11:07:00,
2013-07-01 07:12:00,70.2,67.4,29.88,NE,45,0.0,0.0,91,0.00,,,0.00,WUHU21523XXSP,2013-07-01 11:12:00,
2013-07-01 07:17:00,70.2,67.4,29.88,NE,45,0.0,0.0,91,0.00,,,0.00,WUHU21523XXSP,2013-07-01 11:17:00,
2013-07-01 07:22:00,70.2,67.4,29.88,NE,45,0.0,0.0,91,0.02,,,0.02,WUHU21523XXSP,2013-07-01 11:22:00,
2013-07-01 07:27:00,70.2,67.4,29.88,NE,45,0.0,0.0,91,0.02,,,0.02,WUHU21523XXSP,2013-07-01 11:27:00,
2013-07-01 07:32:00,70.2,67.4,29.88,NE,45,0.0,0.0,91,0.02,,,0.02,WUHU21523XXSP,2013-07-01 11:32:00,
2013-07-01 07:37:00,70.2,67.4,29.87,NE,45,0.0,0.0,91,0.02,,,0.02,WUHU21523XXSP,2013-07-01 11:37:00,
2013-07-01 07:42:00,70.2,67.4,29.88,NE,45,0.0,0.0,91,0.02,,,0.02,WUHU21523XXSP,2013-07-01 11:42:00,
2013-07-01 07:47:00,70.0,67.2,29.88,NE,45,0.0,0.0,91,0.02,,,0.02,WUHU21523XXSP,2013-07-01 11:47:00,
2013-07-01 07:52:00,70.0,67.5,29.89,NE,45,0.0,0.0,92,0.02,,,0.02,WUHU21523XXSP,2013-07-01 11:52:00,
2013-07-01 07:57:00,70.2,67.7,29.88,NE,45,0.0,0.0,92,0.02,,,0.02,WUHU21523XXSP,2013-07-01 11:57:00,
2013-07-01 08:02:00,70.0,67.5,29.87,NE,45,0.0,0.0,92,0.02,,,0.02,WUHU21523XXSP,2013-07-01 12:02:00,
2013-07-01 08:07:00,70.2,67.7,29.87,NE,45,0.0,0.0,92,0.02,,,0.02,WUHU21523XXSP,2013-07-01 12:07:00,
2013-07-01 08:12:00,70.2,67.7,29.87,NE,45,0.0,0.0,92,0.02,,,0.02,WUHU21523XXSP,2013-07-01 12:12:00,
2013-07-01 08:17:00,70.2,67.7,29.88,NE,45,0.0,0.0,92,0.02,,,0.02,WUHU21523XXSP,2013-07-01 12:17:00,
2013-07-01 08:22:00,70.2,67.7,29.88,NE,45,0.0,0.0,92,0.00,,,0.02,WUHU21523XXSP,2013-07-01 12:22:00,
2013-07-01 08:27:00,70.2,67.7,29.88,NE,45,0.0,0.0,92,0.00,,,0.02,WUHU21523XXSP,2013-07-01 12:27:00,
2013-07-01 08:32:00,70.3,67.9,29.89,NE,45,0.0,0.0,92,0.00,,,0.02,WUHU21523XXSP,2013-07-01 12:32:00,
2013-07-01 08:37:00,70.3,67.9,29.89,NE,45,0.0,0.0,92,0.00,,,0.02,WUHU21523XXSP,2013-07-01 12:37:00,
2013-07-01 08:42:00,70.3,67.9,29.90,NE,45,0.0,0.0,92,0.00,,,0.02,WUHU21523XXSP,2013-07-01 12:42:00,
2013-07-01 08:47:00,70.5,68.1,29.90,NE,45,0.0,0.0,92,0.00,,,0.02,WUHU21523XXSP,2013-07-01 12:47:00,
2013-07-01 08:52:00,70.5,68.1,29.90,SE,135,0.0,0.0,92,0.00,,,0.02,WUHU21523XXSP,2013-07-01 12:52:00,
2013-07-01 08:57:00,70.5,68.1,29.90,SE,135,0.0,0.0,92,0.00,,,0.02,WUHU21523XXSP,2013-07-01 12:57:00,
2013-07-01 09:02:00,70.7,68.1,29.90,SE,135,0.0,0.0,92,0.00,,,0.02,WUHU21523XXSP,2013-07-01 13:02:00,
2013-07-01 09:07:00,70.7,68.3,29.90,SE,135,0.0,0.0,92,0.00,,,0.02,WUHU21523XXSP,2013-07-01 13:07:00,
2013-07-01 09:12:00,70.9,68.4,29.90,East,90,0.0,0.0,92,0.00,,,0.02,WUHU21523XXSP,2013-07-01 13:12:00,
2013-07-01 09:17:00,70.9,68.4,29.91,East,90,0.0,0.0,92,0.00,,,0.02,WUHU21523XXSP,2013-07-01 13:17:00,
2013-07-01 09:22:00,70.9,68.4,29.90,ESE,112,0.0,0.0,92,0.00,,,0.02,WUHU21523XXSP,2013-07-01 13:22:00,
2013-07-01 09:27:00,70.9,68.4,29.91,ESE,112,0.0,0.0,92,0.00,,,0.02,WUHU21523XXSP,2013-07-01 13:27:00,
2013-07-01 09:37:00,71.2,68.6,29.91,SSE,157,0.0,0.0,92,0.00,,,0.02,WUHU21523XXSP,2013-07-01 13:37:00,
2013-07-01 09:42:00,71.2,68.8,29.91,SSE,157,0.0,0.0,92,0.00,,,0.02,WUHU21523XXSP,2013-07-01 13:42:00,
2013-07-01 09:47:00,71.2,68.5,29.91,SSE,157,0.0,0.0,91,0.00,,,0.02,WUHU21523XXSP,2013-07-01 13:47:00,
2013-07-01 09:52:00,71.2,68.5,29.91,South,180,0.0,0.0,91,0.00,,,0.02,WUHU21523XXSP,2013-07-01 13:52:00,
2013-07-01 09:57:00,71.2,68.5,29.91,South,180,0.0,0.0,91,0.00,,,0.02,WUHU21523XXSP,2013-07-01 13:57:00,
2013-07-01 10:02:00,71.4,68.7,29.91,South,180,0.0,0.0,91,0.00,,,0.02,WUHU21523XXSP,2013-07-01 14:02:00,
2013-07-01 10:07:00,71.4,68.7,29.91,South,180,0.0,0.0,91,0.00,,,0.02,WUHU21523XXSP,2013-07-01 14:07:00,
2013-07-01 10:12:00,71.6,68.8,29.91,SSW,202,0.7,0.7,91,0.00,,,0.02,WUHU21523XXSP,2013-07-01 14:12:00,
2013-07-01 10:17:00,71.8,69.0,29.91,ESE,112,0.0,0.7,91,0.00,,,0.02,WUHU21523XXSP,2013-07-01 14:17:00,
2013-07-01 10:22:00,72.1,69.4,29.91,ENE,67,0.0,0.0,91,0.00,,,0.02,WUHU21523XXSP,2013-07-01 14:22:00,
2013-07-01 10:27:00,72.5,69.7,29.91,South,180,0.0,0.0,91,0.00,,,0.02,WUHU21523XXSP,2013-07-01 14:27:00,
2013-07-01 10:32:00,72.7,69.6,29.91,ENE,67,0.0,0.0,90,0.00,,,0.02,WUHU21523XXSP,2013-07-01 14:32:00,
2013-07-01 10:37:00,72.9,69.8,29.91,NE,45,0.0,0.0,90,0.00,,,0.02,WUHU21523XXSP,2013-07-01 14:37:00,
2013-07-01 10:42:00,73.0,70.0,29.91,ENE,67,0.0,0.0,90,0.00,,,0.02,WUHU21523XXSP,2013-07-01 14:42:00,
2013-07-01 10:47:00,73.0,70.0,29.91,South,180,0.0,0.0,90,0.00,,,0.02,WUHU21523XXSP,2013-07-01 14:47:00,
2013-07-01 10:57:00,73.2,69.8,29.92,South,180,0.0,0.0,89,0.00,,,0.02,WUHU21523XXSP,2013-07-01 14:57:00,
2013-07-01 11:02:00,73.4,69.8,29.92,East,90,0.0,0.0,89,0.00,,,0.02,WUHU21523XXSP,2013-07-01 15:02:00,
2013-07-01 11:07:00,73.8,70.0,29.92,NW,315,0.0,0.0,88,0.00,,,0.02,WUHU21523XXSP,2013-07-01 15:07:00,
2013-07-01 11:12:00,73.9,70.2,29.92,South,180,0.0,0.0,88,0.00,,,0.02,WUHU21523XXSP,2013-07-01 15:12:00,
2013-07-01 11:17:00,73.9,69.9,29.92,WSW,247,0.0,0.0,87,0.00,,,0.02,WUHU21523XXSP,2013-07-01 15:17:00,
2013-07-01 11:22:00,73.9,69.9,29.91,NE,45,0.0,0.0,87,0.00,,,0.02,WUHU21523XXSP,2013-07-01 15:22:00,
2013-07-01 11:27:00,73.9,69.9,29.92,South,180,0.0,0.0,87,0.00,,,0.02,WUHU21523XXSP,2013-07-01 15:27:00,
2013-07-01 11:32:00,73.8,69.7,29.92,SE,135,0.0,0.0,87,0.00,,,0.02,WUHU21523XXSP,2013-07-01 15:32:00,
2013-07-01 11:37:00,73.8,69.7,29.91,SSW,202,0.0,0.0,87,0.00,,,0.02,WUHU21523XXSP,2013-07-01 15:37:00,
2013-07-01 11:42:00,73.8,70.0,29.92,South,180,0.0,0.0,88,0.00,,,0.02,WUHU21523XXSP,2013-07-01 15:42:00,
2013-07-01 11:47:00,74.1,70.4,29.91,South,180,0.0,0.0,88,0.00,,,0.02,WUHU21523XXSP,2013-07-01 15:47:00,
2013-07-01 11:52:00,74.8,70.8,29.91,ESE,112,0.0,0.0,87,0.00,,,0.02,WUHU21523XXSP,2013-07-01 15:52:00,
2013-07-01 11:57:00,74.8,70.8,29.91,NE,45,0.0,0.0,87,0.00,,,0.02,WUHU21523XXSP,2013-07-01 15:57:00,
2013-07-01 12:02:00,75.0,70.9,29.91,South,180,2.9,2.9,87,0.00,,,0.02,WUHU21523XXSP,2013-07-01 16:02:00,
2013-07-01 12:07:00,75.6,71.1,29.90,South,180,0.0,2.9,86,0.00,,,0.02,WUHU21523XXSP,2013-07-01 16:07:00,
2013-07-01 12:12:00,75.9,71.5,29.91,ESE,112,0.0,0.0,86,0.00,,,0.02,WUHU21523XXSP,2013-07-01 16:12:00,
2013-07-01 12:17:00,76.1,71.3,29.91,ESE,112,0.0,0.0,85,0.00,,,0.02,WUHU21523XXSP,2013-07-01 16:17:00,
2013-07-01 12:22:00,76.6,71.8,29.91,South,180,0.0,0.0,85,0.00,,,0.02,WUHU21523XXSP,2013-07-01 16:22:00,
2013-07-01 12:27:00,76.8,71.6,29.90,ENE,67,0.0,0.0,84,0.00,,,0.02,WUHU21523XXSP,2013-07-01 16:27:00,
2013-07-01 12:32:00,77.4,71.8,29.90,WSW,247,0.0,0.0,83,0.00,,,0.02,WUHU21523XXSP,2013-07-01 16:32:00,
2013-07-01 12:37:00,77.5,71.6,29.90,North,0,0.0,0.0,82,0.00,,,0.02,WUHU21523XXSP,2013-07-01 16:37:00,
2013-07-01 12:42:00,77.7,72.1,29.90,SW,225,0.0,0.0,83,0.00,,,0.02,WUHU21523XXSP,2013-07-01 16:42:00,
2013-07-01 12:47:00,78.1,71.4,29.90,SSW,202,0.0,0.0,80,0.00,,,0.02,WUHU21523XXSP,2013-07-01 16:47:00,
2013-07-01 12:52:00,78.1,71.8,29.90,SW,225,3.4,3.4,80,0.00,,,0.02,WUHU21523XXSP,2013-07-01 16:52:00,
2013-07-01 12:57:00,78.1,71.4,29.90,WSW,247,0.0,3.4,80,0.00,,,0.02,WUHU21523XXSP,2013-07-01 16:57:00,
2013-07-01 13:02:00,78.1,71.8,29.89,SW,225,0.0,3.4,81,0.00,,,0.02,WUHU21523XXSP,2013-07-01 17:02:00,
2013-07-01 13:07:00,78.1,71.0,29.89,South,180,1.6,1.6,79,0.00,,,0.02,WUHU21523XXSP,2013-07-01 17:07:00,
2013-07-01 13:12:00,78.1,71.0,29.89,ENE,67,0.0,1.6,79,0.00,,,0.02,WUHU21523XXSP,2013-07-01 17:12:00,
2013-07-01 13:17:00,77.9,70.5,29.89,South,172,0.9,2.5,78,0.00,,,0.02,WUHU21523XXSP,2013-07-01 17:17:00,
2013-07-01 13:22:00,77.7,70.3,29.90,NE,45,2.2,2.5,78,0.00,,,0.02,WUHU21523XXSP,2013-07-01 17:22:00,
2013-07-01 13:27:00,77.7,70.3,29.90,SE,124,0.8,3.8,78,0.00,,,0.02,WUHU21523XXSP,2013-07-01 17:27:00,
2013-07-01 13:32:00,77.7,70.3,29.90,ENE,67,2.0,3.8,78,0.00,,,0.02,WUHU21523XXSP,2013-07-01 17:32:00,
2013-07-01 13:37:00,78.1,70.6,29.90,NW,315,2.7,2.7,78,0.00,,,0.02,WUHU21523XXSP,2013-07-01 17:37:00,
2013-07-01 13:42:00,78.1,70.3,29.90,West,270,0.0,2.7,77,0.00,,,0.02,WUHU21523XXSP,2013-07-01 17:42:00,
2013-07-01 13:47:00,78.1,70.6,29.90,SSW,202,0.0,2.7,78,0.00,,,0.02,WUHU21523XXSP,2013-07-01 17:47:00,
2013-07-01 13:52:00,78.3,70.4,29.90,SW,225,1.3,1.3,77,0.00,,,0.02,WUHU21523XXSP,2013-07-01 17:52:00,
2013-07-01 13:57:00,78.6,71.2,29.89,SSW,202,0.0,1.3,78,0.00,,,0.02,WUHU21523XXSP,2013-07-01 17:57:00,
2013-07-01 14:02:00,79.0,71.5,29.89,ESE,112,0.0,0.0,78,0.00,,,0.02,WUHU21523XXSP,2013-07-01 18:02:00,
2013-07-01 14:07:00,79.5,71.3,29.91,SSW,202,2.2,3.1,76,0.00,,,0.02,WUHU21523XXSP,2013-07-01 18:07:00,
2013-07-01 14:12:00,79.7,71.5,29.90,SSW,207,0.6,3.1,76,0.00,,,0.02,WUHU21523XXSP,2013-07-01 18:12:00,
2013-07-01 14:17:00,79.9,71.2,29.90,WSW,247,1.1,3.1,75,0.00,,,0.02,WUHU21523XXSP,2013-07-01 18:17:00,
2013-07-01 14:22:00,80.1,71.0,29.90,NNW,337,0.0,1.1,74,0.00,,,0.02,WUHU21523XXSP,2013-07-01 18:22:00,
2013-07-01 14:27:00,79.9,70.8,29.90,NE,45,0.0,0.9,74,0.00,,,0.02,WUHU21523XXSP,2013-07-01 18:27:00,
2013-07-01 14:32:00,80.1,71.0,29.90,West,270,0.0,0.0,74,0.00,,,0.02,WUHU21523XXSP,2013-07-01 18:32:00,
2013-07-01 14:37:00,80.2,70.4,29.90,ENE,67,2.0,2.0,72,0.00,,,0.02,WUHU21523XXSP,2013-07-01 18:37:00,
2013-07-01 14:42:00,80.2,70.8,29.90,ENE,67,3.6,3.6,73,0.00,,,0.02,WUHU21523XXSP,2013-07-01 18:42:00,
2013-07-01 14:47:00,80.2,70.8,29.89,SW,219,3.9,5.8,73,0.00,,,0.02,WUHU21523XXSP,2013-07-01 18:47:00,
2013-07-01 14:52:00,80.4,70.6,29.90,SW,225,0.0,5.8,72,0.00,,,0.02,WUHU21523XXSP,2013-07-01 18:52:00,
2013-07-01 14:57:00,80.4,70.6,29.90,SW,225,1.8,1.8,72,0.00,,,0.02,WUHU21523XXSP,2013-07-01 18:57:00,
2013-07-01 15:02:00,80.4,70.6,29.90,South,180,1.1,1.8,72,0.00,,,0.02,WUHU21523XXSP,2013-07-01 19:02:00,
2013-07-01 15:07:00,80.2,70.0,29.89,NE,45,3.8,4.0,71,0.00,,,0.02,WUHU21523XXSP,2013-07-01 19:07:00,
2013-07-01 15:12:00,80.2,70.4,29.90,SSW,202,1.1,4.0,72,0.00,,,0.02,WUHU21523XXSP,2013-07-01 19:12:00,
2013-07-01 15:17:00,80.2,70.4,29.90,ENE,67,1.3,1.3,72,0.00,,,0.02,WUHU21523XXSP,2013-07-01 19:17:00,
2013-07-01 15:22:00,80.1,70.2,29.89,East,90,0.0,1.3,72,0.00,,,0.02,WUHU21523XXSP,2013-07-01 19:22:00,
2013-07-01 15:27:00,80.1,70.6,29.89,South,180,0.0,1.3,73,0.00,,,0.02,WUHU21523XXSP,2013-07-01 19:27:00,
2013-07-01 15:32:00,80.2,71.2,29.89,South,180,0.0,0.0,73,0.00,,,0.02,WUHU21523XXSP,2013-07-01 19:32:00,
2013-07-01 15:37:00,80.1,71.0,29.89,SW,225,1.1,1.1,74,0.00,,,0.02,WUHU21523XXSP,2013-07-01 19:37:00,
2013-07-01 15:42:00,80.2,71.2,29.89,NNE,22,0.0,1.1,74,0.00,,,0.02,WUHU21523XXSP,2013-07-01 19:42:00,
2013-07-01 15:47:00,80.2,70.8,29.89,NE,45,0.0,0.0,73,0.00,,,0.02,WUHU21523XXSP,2013-07-01 19:47:00,
2013-07-01 15:52:00,80.4,71.0,29.89,ENE,67,0.0,0.0,73,0.00,,,0.02,WUHU21523XXSP,2013-07-01 19:52:00,
2013-07-01 15:57:00,80.4,71.0,29.89,SSW,202,4.0,4.0,73,0.00,,,0.02,WUHU21523XXSP,2013-07-01 19:57:00,
2013-07-01 16:02:00,80.6,70.8,29.89,SW,225,0.0,5.1,72,0.00,,,0.02,WUHU21523XXSP,2013-07-01 20:02:00,
2013-07-01 16:07:00,81.0,71.5,29.89,WSW,247,0.0,5.1,73,0.00,,,0.02,WUHU21523XXSP,2013-07-01 20:07:00,
2013-07-01 16:12:00,81.1,71.3,29.89,SW,225,4.0,4.0,72,0.00,,,0.02,WUHU21523XXSP,2013-07-01 20:12:00,
2013-07-01 16:17:00,81.5,71.0,29.89,ESE,112,0.0,5.1,71,0.00,,,0.02,WUHU21523XXSP,2013-07-01 20:17:00,
2013-07-01 16:22:00,81.3,71.0,29.89,NNE,22,2.5,5.1,71,0.00,,,0.02,WUHU21523XXSP,2013-07-01 20:22:00,
2013-07-01 16:28:00,81.3,71.0,29.89,NE,45,0.0,2.5,71,0.00,,,0.02,WUHU21523XXSP,2013-07-01 20:28:00,
2013-07-01 16:33:00,81.1,70.9,29.89,NE,45,0.0,0.0,71,0.00,,,0.02,WUHU21523XXSP,2013-07-01 20:33:00,
2013-07-01 16:42:00,81.1,71.3,29.90,NE,45,0.0,2.0,72,0.00,,,0.02,WUHU21523XXSP,2013-07-01 20:42:00,
2013-07-01 16:47:00,81.1,71.3,29.89,ENE,67,1.1,1.1,72,0.00,,,0.02,WUHU21523XXSP,2013-07-01 20:47:00,
2013-07-01 16:52:00,81.1,71.3,29.90,ESE,112,0.0,1.1,71,0.00,,,0.02,WUHU21523XXSP,2013-07-01 20:52:00,
2013-07-01 16:57:00,81.0,70.7,29.89,ENE,67,3.5,4.5,71,0.00,,,0.02,WUHU21523XXSP,2013-07-01 20:57:00,
2013-07-01 17:02:00,80.8,70.9,29.89,North,0,0.0,4.5,72,0.00,,,0.02,WUHU21523XXSP,2013-07-01 21:02:00,
2013-07-01 17:07:00,80.8,70.9,29.90,NE,45,1.6,1.6,72,0.00,,,0.02,WUHU21523XXSP,2013-07-01 21:07:00,
2013-07-01 17:12:00,80.6,71.2,29.90,South,180,0.0,1.6,73,0.00,,,0.02,WUHU21523XXSP,2013-07-01 21:12:00,
2013-07-01 17:17:00,80.4,71.0,29.90,SW,225,0.0,2.5,73,0.00,,,0.02,WUHU21523XXSP,2013-07-01 21:17:00,
2013-07-01 17:22:00,80.2,70.8,29.89,SSW,202,2.0,2.5,73,0.00,,,0.02,WUHU21523XXSP,2013-07-01 21:22:00,
2013-07-01 17:27:00,80.2,70.8,29.90,SSW,202,0.0,2.0,73,0.00,,,0.02,WUHU21523XXSP,2013-07-01 21:27:00,
2013-07-01 17:32:00,80.2,70.8,29.90,ENE,67,1.8,1.8,73,0.00,,,0.02,WUHU21523XXSP,2013-07-01 21:32:00,
2013-07-01 17:37:00,80.1,70.6,29.90,SSW,202,0.9,1.8,73,0.00,,,0.02,WUHU21523XXSP,2013-07-01 21:37:00,
2013-07-01 17:42:00,80.1,70.6,29.90,NW,315,0.0,0.9,73,0.00,,,0.02,WUHU21523XXSP,2013-07-01 21:42:00,
2013-07-01 17:47:00,80.1,70.6,29.90,ENE,67,0.9,3.1,73,0.00,,,0.02,WUHU21523XXSP,2013-07-01 21:47:00,
2013-07-01 17:52:00,79.9,70.4,29.90,SSW,202,3.4,3.4,73,0.00,,,0.02,WUHU21523XXSP,2013-07-01 21:52:00,
2013-07-01 17:57:00,79.7,70.3,29.90,SW,225,0.0,3.4,73,0.00,,,0.02,WUHU21523XXSP,2013-07-01 21:57:00,
2013-07-01 18:02:00,79.5,70.1,29.90,SW,225,2.5,2.5,73,0.00,,,0.02,WUHU21523XXSP,2013-07-01 22:02:00,
2013-07-01 18:07:00,79.5,70.1,29.90,SW,225,0.0,2.5,73,0.00,,,0.02,WUHU21523XXSP,2013-07-01 22:07:00,
2013-07-01 18:12:00,79.5,70.5,29.90,NE,45,0.7,2.5,74,0.00,,,0.02,WUHU21523XXSP,2013-07-01 22:12:00,
2013-07-01 18:17:00,79.5,70.5,29.90,SW,225,0.0,0.7,74,0.00,,,0.02,WUHU21523XXSP,2013-07-01 22:17:00,
2013-07-01 18:27:00,79.5,70.5,29.89,ENE,67,0.0,2.2,74,0.00,,,0.02,WUHU21523XXSP,2013-07-01 22:27:00,
2013-07-01 18:32:00,79.3,70.3,29.89,ESE,112,0.0,0.0,74,0.00,,,0.02,WUHU21523XXSP,2013-07-01 22:32:00,
2013-07-01 18:37:00,79.3,70.7,29.89,NW,315,0.0,0.0,75,0.00,,,0.02,WUHU21523XXSP,2013-07-01 22:37:00,
2013-07-01 18:42:00,79.2,70.1,29.90,NNE,26,1.9,3.1,74,0.00,,,0.02,WUHU21523XXSP,2013-07-01 22:42:00,
2013-07-01 18:47:00,79.0,70.3,29.90,SW,215,1.1,3.1,75,0.00,,,0.02,WUHU21523XXSP,2013-07-01 22:47:00,
2013-07-01 18:52:00,79.0,70.3,29.90,WNW,292,0.0,1.6,75,0.00,,,0.02,WUHU21523XXSP,2013-07-01 22:52:00,
2013-07-01 18:57:00,79.0,70.7,29.90,NE,45,0.0,2.0,76,0.00,,,0.02,WUHU21523XXSP,2013-07-01 22:57:00,
2013-07-01 19:02:00,78.8,70.6,29.90,NE,45,0.0,3.6,76,0.00,,,0.02,WUHU21523XXSP,2013-07-01 23:02:00,
2013-07-01 19:07:00,78.6,70.8,29.90,NE,45,0.0,3.6,77,0.00,,,0.02,WUHU21523XXSP,2013-07-01 23:07:00,
2013-07-01 19:12:00,78.6,70.8,29.91,NE,45,0.9,0.9,77,0.00,,,0.02,WUHU21523XXSP,2013-07-01 23:12:00,
2013-07-01 19:17:00,78.6,71.2,29.91,NE,45,0.0,2.7,78,0.00,,,0.02,WUHU21523XXSP,2013-07-01 23:17:00,
2013-07-01 19:22:00,78.6,71.2,29.91,ENE,67,4.9,4.9,78,0.00,,,0.02,WUHU21523XXSP,2013-07-01 23:22:00,
2013-07-01 19:27:00,78.6,71.2,29.91,SSE,157,0.0,4.9,78,0.00,,,0.02,WUHU21523XXSP,2013-07-01 23:27:00,
2013-07-01 19:32:00,78.4,71.0,29.91,WSW,247,2.0,2.0,78,0.00,,,0.02,WUHU21523XXSP,2013-07-01 23:32:00,
2013-07-01 19:37:00,78.4,71.0,29.91,SW,225,0.0,2.0,78,0.00,,,0.02,WUHU21523XXSP,2013-07-01 23:37:00,
2013-07-01 19:42:00,78.1,70.6,29.91,SE,135,0.0,0.0,78,0.00,,,0.02,WUHU21523XXSP,2013-07-01 23:42:00,
2013-07-01 19:47:00,78.1,70.6,29.92,SSW,202,0.0,0.0,78,0.00,,,0.02,WUHU21523XXSP,2013-07-01 23:47:00,
2013-07-01 19:52:00,78.1,70.6,29.92,SSE,157,0.0,0.0,78,0.00,,,0.02,WUHU21523XXSP,2013-07-01 23:52:00,
2013-07-01 19:57:00,77.9,70.5,29.92,NE,45,0.0,0.0,78,0.00,,,0.02,WUHU21523XXSP,2013-07-01 23:57:00,
2013-07-01 20:02:00,77.7,70.3,29.92,SW,225,0.0,0.0,78,0.00,,,0.02,WUHU21523XXSP,2013-07-02 00:02:00,
2013-07-01 20:07:00,77.7,70.3,29.92,South,180,0.0,0.0,78,0.00,,,0.02,WUHU21523XXSP,2013-07-02 00:07:00,
2013-07-01 20:12:00,77.7,70.3,29.93,SSE,157,0.0,0.0,78,0.00,,,0.02,WUHU21523XXSP,2013-07-02 00:12:00,
2013-07-01 20:17:00,77.7,70.7,29.93,SW,225,0.7,0.7,79,0.00,,,0.02,WUHU21523XXSP,2013-07-02 00:17:00,
2013-07-01 20:22:00,77.5,70.1,29.94,SSW,202,0.0,0.7,78,0.00,,,0.02,WUHU21523XXSP,2013-07-02 00:22:00,
2013-07-01 20:27:00,77.4,70.1,29.93,SSW,202,0.0,0.7,78,0.00,,,0.02,WUHU21523XXSP,2013-07-02 00:27:00,
2013-07-01 20:32:00,77.4,69.9,29.93,West,270,0.0,0.0,78,0.00,,,0.02,WUHU21523XXSP,2013-07-02 00:32:00,
2013-07-01 20:37:00,77.2,69.7,29.93,ENE,67,2.0,2.0,78,0.00,,,0.02,WUHU21523XXSP,2013-07-02 00:37:00,
2013-07-01 20:42:00,77.2,69.7,29.93,ENE,67,0.0,2.0,78,0.00,,,0.02,WUHU21523XXSP,2013-07-02 00:42:00,
2013-07-01 20:47:00,77.0,70.0,29.93,ENE,67,0.0,0.0,79,0.00,,,0.02,WUHU21523XXSP,2013-07-02 00:47:00,
2013-07-01 20:52:00,77.0,70.0,29.93,ENE,67,0.0,0.0,79,0.00,,,0.02,WUHU21523XXSP,2013-07-02 00:52:00,
2013-07-01 20:57:00,76.8,69.8,29.93,SW,225,0.0,0.0,79,0.00,,,0.02,WUHU21523XXSP,2013-07-02 00:57:00,
2013-07-01 21:02:00,76.8,69.8,29.93,SE,135,0.0,0.0,79,0.00,,,0.02,WUHU21523XXSP,2013-07-02 01:02:00,
2013-07-01 21:07:00,76.8,69.8,29.93,NE,45,0.0,0.0,79,0.00,,,0.02,WUHU21523XXSP,2013-07-02 01:07:00,
2013-07-01 21:12:00,76.8,69.8,29.93,SE,135,0.0,0.0,79,0.00,,,0.02,WUHU21523XXSP,2013-07-02 01:12:00,
2013-07-01 21:17:00,76.6,69.6,29.93,NE,45,0.0,0.0,79,0.00,,,0.02,WUHU21523XXSP,2013-07-02 01:17:00,
2013-07-01 21:22:00,76.6,70.0,29.93,ENE,67,0.0,0.0,80,0.00,,,0.02,WUHU21523XXSP,2013-07-02 01:22:00,
2013-07-01 21:27:00,76.6,70.0,29.93,ENE,67,3.1,3.1,80,0.00,,,0.02,WUHU21523XXSP,2013-07-02 01:27:00,
2013-07-01 21:32:00,76.6,70.0,29.93,ENE,67,0.0,3.1,80,0.00,,,0.02,WUHU21523XXSP,2013-07-02 01:32:00,
2013-07-01 21:37:00,76.6,70.0,29.93,SSW,202,0.0,0.0,80,0.00,,,0.02,WUHU21523XXSP,2013-07-02 01:37:00,
2013-07-01 21:42:00,76.5,69.9,29.93,SSW,202,0.0,0.0,80,0.00,,,0.02,WUHU21523XXSP,2013-07-02 01:42:00,
2013-07-01 21:47:00,76.5,69.9,29.94,SW,225,0.0,0.0,80,0.00,,,0.02,WUHU21523XXSP,2013-07-02 01:47:00,
2013-07-01 21:52:00,76.5,69.9,29.94,NE,45,0.0,0.0,80,0.00,,,0.02,WUHU21523XXSP,2013-07-02 01:52:00,
2013-07-01 21:57:00,76.3,70.0,29.94,SE,135,0.0,0.0,81,0.00,,,0.02,WUHU21523XXSP,2013-07-02 01:57:00,
2013-07-01 22:02:00,76.3,70.0,29.94,ENE,67,0.0,0.0,81,0.00,,,0.02,WUHU21523XXSP,2013-07-02 02:02:00,
2013-07-01 22:07:00,76.3,70.0,29.95,ENE,67,0.0,0.0,81,0.00,,,0.02,WUHU21523XXSP,2013-07-02 02:07:00,
2013-07-01 22:12:00,76.3,70.0,29.95,SE,135,0.0,0.0,81,0.00,,,0.02,WUHU21523XXSP,2013-07-02 02:12:00,
2013-07-01 22:17:00,76.3,70.0,29.95,ENE,67,0.0,0.7,81,0.00,,,0.02,WUHU21523XXSP,2013-07-02 02:17:00,
2013-07-01 22:27:00,76.1,69.9,29.95,ENE,67,0.0,0.0,81,0.00,,,0.02,WUHU21523XXSP,2013-07-02 02:27:00,
2013-07-01 22:32:00,76.1,69.9,29.96,South,180,4.5,4.5,81,0.00,,,0.02,WUHU21523XXSP,2013-07-02 02:32:00,
2013-07-01 22:37:00,76.1,69.9,29.95,SW,225,0.0,4.5,81,0.00,,,0.02,WUHU21523XXSP,2013-07-02 02:37:00,
2013-07-01 22:42:00,75.9,69.7,29.96,ENE,67,0.9,0.9,81,0.00,,,0.02,WUHU21523XXSP,2013-07-02 02:42:00,
2013-07-01 22:47:00,75.9,69.7,29.96,SSW,202,0.0,0.9,81,0.00,,,0.02,WUHU21523XXSP,2013-07-02 02:47:00,
2013-07-01 22:52:00,75.9,69.7,29.95,South,180,0.0,0.0,81,0.00,,,0.02,WUHU21523XXSP,2013-07-02 02:52:00,
2013-07-01 22:57:00,75.9,69.7,29.96,South,180,0.0,0.0,81,0.00,,,0.02,WUHU21523XXSP,2013-07-02 02:57:00,
2013-07-01 23:02:00,75.9,69.7,29.96,SSE,157,0.0,0.0,81,0.00,,,0.02,WUHU21523XXSP,2013-07-02 03:02:00,
2013-07-01 23:07:00,75.7,69.5,29.96,East,90,0.0,0.0,81,0.00,,,0.02,WUHU21523XXSP,2013-07-02 03:07:00,
2013-07-01 23:12:00,75.7,69.9,29.96,ENE,67,0.0,0.0,82,0.00,,,0.02,WUHU21523XXSP,2013-07-02 03:12:00,
2013-07-01 23:17:00,75.7,69.9,29.96,South,180,0.7,0.7,82,0.00,,,0.02,WUHU21523XXSP,2013-07-02 03:17:00,
2013-07-01 23:22:00,75.6,69.4,29.96,SSW,202,0.0,0.7,81,0.00,,,0.02,WUHU21523XXSP,2013-07-02 03:22:00,
2013-07-01 23:27:00,75.6,69.4,29.96,NE,45,0.0,0.7,81,0.00,,,0.02,WUHU21523XXSP,2013-07-02 03:27:00,
2013-07-01 23:32:00,75.6,69.4,29.96,NE,36,2.1,2.7,81,0.00,,,0.02,WUHU21523XXSP,2013-07-02 03:32:00,
2013-07-01 23:37:00,75.6,69.4,29.96,NE,45,2.7,2.7,81,0.00,,,0.02,WUHU21523XXSP,2013-07-02 03:37:00,
2013-07-01 23:42:00,75.6,69.2,29.96,ENE,67,0.0,2.7,81,0.00,,,0.02,WUHU21523XXSP,2013-07-02 03:42:00,
2013-07-01 23:47:00,75.4,68.9,29.96,South,180,3.1,3.1,80,0.00,,,0.02,WUHU21523XXSP,2013-07-02 03:47:00,
2013-07-01 23:52:00,75.6,69.0,29.96,NE,45,0.7,3.1,80,0.00,,,0.02,WUHU21523XXSP,2013-07-02 03:52:00,
2013-07-01 23:57:00,75.4,68.9,29.96,NE,45,0.0,0.7,80,0.00,,,0.02,WUHU21523XXSP,2013-07-02 03:57:00,